| time (UTC) | temp F | wind direction | speed MPH | gust MPH | rain 1hr in | rain 24hr in | rain mn in | humidity % | barometer mb |
| 20260904171810 | 76 | 135 | 3.0 | 5.0 | 0.00 | 0.00 | 0.00 | 73 | 1014.6 |
| 20260904171305 | 76 | 83 | 3.0 | 6.0 | 0.00 | 0.00 | 0.00 | 71 | 1014.6 |
| 20260904170802 | 76 | 50 | 5.0 | 7.0 | 0.00 | 0.00 | 0.00 | 72 | 1014.6 |
| 20260904170257 | 76 | 36 | 4.0 | 6.0 | 0.00 | 0.00 | 0.00 | 71 | 1014.6 |
| 20260904165756 | 75 | 116 | 3.0 | 5.0 | 0.00 | 0.00 | 0.00 | 75 | 1014.6 |
| 20260904165256 | 75 | 70 | 1.0 | 2.0 | 0.00 | 0.00 | 0.00 | 74 | 1014.6 |
| 20260904164750 | 75 | 72 | 5.0 | 6.0 | 0.00 | 0.00 | 0.00 | 75 | 1014.2 |
| 20260904164246 | 74 | 97 | 1.0 | 1.0 | 0.00 | 0.00 | 0.00 | 77 | 1014.2 |
| 20260904163742 | 73 | 60 | 1.0 | 2.0 | 0.00 | 0.00 | 0.00 | 78 | 1013.9 |
| 20260904163237 | 74 | 129 | 1.0 | 2.0 | 0.00 | 0.00 | 0.00 | 76 | 1014.2 |
| 20260904162735 | 74 | 60 | 0.0 | 0.0 | 0.00 | 0.00 | 0.00 | 76 | 1013.9 |
| 20260904162231 | 73 | 79 | 0.0 | 0.0 | 0.00 | 0.00 | 0.00 | 78 | 1013.9 |
| 20260904161726 | 73 | 27 | 0.0 | 0.0 | 0.00 | 0.00 | 0.00 | 79 | 1013.9 |
| 20260904161221 | 73 | 66 | 2.0 | 2.0 | 0.00 | 0.00 | 0.00 | 80 | 1013.9 |
| 20260904160716 | 73 | 135 | 0.0 | 0.0 | 0.00 | 0.00 | 0.00 | 79 | 1013.9 |
| 20260904160207 | 73 | 61 | 0.0 | 0.0 | 0.00 | 0.00 | 0.00 | 79 | 1013.9 |
| 20260904155707 | 74 | 1 | 0.0 | 0.0 | 0.00 | 0.00 | 0.00 | 78 | 1013.9 |
| 20260904155206 | 72 | 67 | 0.0 | 0.0 | 0.00 | 0.00 | 0.00 | 82 | 1013.9 |
| 20260904154705 | 72 | 135 | 0.0 | 0.0 | 0.00 | 0.00 | 0.00 | 84 | 1013.9 |
| 20260904154205 | 71 | 146 | 0.0 | 0.0 | 0.00 | 0.00 | 0.00 | 85 | 1013.9 |
| 20260904153700 | 72 | 51 | 0.0 | 0.0 | 0.00 | 0.00 | 0.00 | 84 | 1013.5 |
| 20260904153156 | 72 | 79 | 0.0 | 0.0 | 0.00 | 0.00 | 0.00 | 83 | 1013.9 |
| 20260904152652 | 71 | 63 | 0.0 | 0.0 | 0.00 | 0.00 | 0.00 | 86 | 1013.9 |
| 20260904152147 | 71 | 64 | 0.0 | 0.0 | 0.00 | 0.00 | 0.00 | 85 | 1013.9 |
| 20260904151642 | 71 | 75 | 1.0 | 2.0 | 0.00 | 0.00 | 0.00 | 86 | 1013.9 |
| 20260904151140 | 70 | 16 | 0.0 | 0.0 | 0.00 | 0.00 | 0.00 | 86 | 1013.9 |
| 20260904150636 | 69 | 42 | 0.0 | 0.0 | 0.00 | 0.00 | 0.00 | 88 | 1013.9 |
| 20260904150132 | 69 | 78 | 0.0 | 0.0 | 0.00 | 0.00 | 0.00 | 89 | 1013.9 |
| 20260904145630 | 69 | 66 | 0.0 | 0.0 | 0.00 | 0.00 | 0.00 | 90 | 1013.9 |
| 20260904145126 | 68 | 35 | 0.0 | 0.0 | 0.00 | 0.00 | 0.00 | 91 | 1013.5 |
| 20260904144621 | 67 | 54 | 0.0 | 0.0 | 0.00 | 0.00 | 0.00 | 93 | 1013.5 |
| 20260904144117 | 66 | 58 | 0.0 | 0.0 | 0.00 | 0.00 | 0.00 | 93 | 1013.9 |
| 20260904143612 | 66 | 49 | 0.0 | 0.0 | 0.00 | 0.00 | 0.00 | 94 | 1013.5 |
| 20260904143108 | 66 | 45 | 0.0 | 0.0 | 0.00 | 0.00 | 0.00 | 95 | 1013.5 |
| 20260904142605 | 65 | 72 | 0.0 | 0.0 | 0.00 | 0.00 | 0.00 | 97 | 1013.5 |
| 20260904142105 | 64 | 72 | 0.0 | 0.0 | 0.00 | 0.00 | 0.00 | 97 | 1013.2 |
| 20260904141600 | 64 | 72 | 0.0 | 0.0 | 0.00 | 0.00 | 0.00 | 98 | 1013.2 |
| 20260904141056 | 63 | 72 | 0.0 | 0.0 | 0.00 | 0.00 | 0.00 | 98 | 1013.2 |
| 20260904140551 | 62 | 72 | 0.0 | 0.0 | 0.00 | 0.00 | 0.00 | 98 | 1013.2 |
| 20260904140045 | 63 | 72 | 0.0 | 0.0 | 0.00 | 0.00 | 0.00 | 98 | 1013.2 |
| 20260904135544 | 63 | 72 | 0.0 | 0.0 | 0.00 | 0.00 | 0.00 | 98 | 1012.9 |
| 20260904135036 | 63 | 72 | 0.0 | 0.0 | 0.00 | 0.00 | 0.00 | 98 | 1013.2 |
| 20260904134531 | 62 | 72 | 0.0 | 0.0 | 0.00 | 0.00 | 0.00 | 98 | 1013.2 |
| 20260904134025 | 62 | 72 | 0.0 | 0.0 | 0.00 | 0.00 | 0.00 | 98 | 1012.9 |
| 20260904133519 | 62 | 72 | 0.0 | 0.0 | 0.00 | 0.00 | 0.00 | 98 | 1012.9 |
| 20260904133015 | 62 | 72 | 0.0 | 0.0 | 0.00 | 0.00 | 0.00 | 98 | 1013.2 |
| 20260904132510 | 62 | 72 | 0.0 | 0.0 | 0.00 | 0.00 | 0.00 | 98 | 1013.2 |
| 20260904132010 | 62 | 72 | 0.0 | 0.0 | 0.00 | 0.00 | 0.00 | 98 | 1012.9 |
| 20260904131504 | 62 | 72 | 0.0 | 0.0 | 0.00 | 0.00 | 0.00 | 98 | 1013.2 |
| 20260904131000 | 61 | 72 | 0.0 | 0.0 | 0.00 | 0.00 | 0.00 | 98 | 1012.9 |
| 20260904130459 | 62 | 72 | 0.0 | 0.0 | 0.00 | 0.00 | 0.00 | 98 | 1013.2 |
| 20260904125954 | 62 | 72 | 0.0 | 0.0 | 0.00 | 0.00 | 0.00 | 98 | 1012.9 |
| 20260904125450 | 62 | 72 | 0.0 | 0.0 | 0.00 | 0.00 | 0.00 | 98 | 1012.9 |
| 20260904124949 | 62 | 72 | 0.0 | 0.0 | 0.00 | 0.00 | 0.00 | 98 | 1012.9 |
| 20260904124446 | 61 | 72 | 0.0 | 0.0 | 0.00 | 0.00 | 0.00 | 98 | 1012.9 |
| 20260904123942 | 62 | 72 | 0.0 | 0.0 | 0.00 | 0.00 | 0.00 | 97 | 1012.9 |
| 20260904123436 | 62 | 72 | 0.0 | 0.0 | 0.00 | 0.00 | 0.00 | 98 | 1012.9 |
| 20260904122932 | 62 | 72 | 0.0 | 0.0 | 0.00 | 0.00 | 0.00 | 97 | 1012.9 |
| 20260904122431 | 62 | 72 | 0.0 | 0.0 | 0.00 | 0.00 | 0.00 | 97 | 1012.9 |
| 20260904121926 | 62 | 72 | 0.0 | 0.0 | 0.00 | 0.00 | 0.00 | 97 | 1012.5 |
| 20260904121422 | 62 | 72 | 0.0 | 0.0 | 0.00 | 0.00 | 0.00 | 97 | 1012.5 |
| 20260904120919 | 62 | 72 | 0.0 | 0.0 | 0.00 | 0.00 | 0.00 | 97 | 1012.5 |
| 20260904120414 | 62 | 72 | 0.0 | 0.0 | 0.00 | 0.00 | 0.00 | 97 | 1012.9 |
| 20260904115909 | 62 | 72 | 0.0 | 0.0 | 0.00 | 0.00 | 0.00 | 97 | 1012.9 |
| 20260904115404 | 62 | 72 | 0.0 | 0.0 | 0.00 | 0.00 | 0.00 | 97 | 1012.9 |
| 20260904114859 | 62 | 72 | 0.0 | 0.0 | 0.00 | 0.00 | 0.00 | 97 | 1012.9 |
| 20260904114353 | 62 | 72 | 0.0 | 0.0 | 0.00 | 0.00 | 0.00 | 97 | 1012.9 |
| 20260904113849 | 62 | 72 | 0.0 | 0.0 | 0.00 | 0.00 | 0.00 | 97 | 1012.9 |
| 20260904113348 | 62 | 72 | 0.0 | 0.0 | 0.00 | 0.00 | 0.00 | 97 | 1012.9 |
| 20260904112843 | 62 | 72 | 0.0 | 0.0 | 0.00 | 0.00 | 0.00 | 96 | 1012.5 |
| 20260904112338 | 62 | 72 | 0.0 | 0.0 | 0.00 | 0.00 | 0.00 | 96 | 1012.5 |
| 20260904111834 | 62 | 72 | 0.0 | 0.0 | 0.00 | 0.00 | 0.00 | 96 | 1012.5 |
| 20260904111330 | 62 | 73 | 0.0 | 0.0 | 0.00 | 0.00 | 0.00 | 96 | 1012.9 |
| 20260904110825 | 62 | 72 | 0.0 | 0.0 | 0.00 | 0.00 | 0.00 | 96 | 1012.9 |
| 20260904110324 | 63 | 72 | 0.0 | 0.0 | 0.00 | 0.00 | 0.00 | 96 | 1012.5 |
| 20260904105824 | 62 | 72 | 0.0 | 0.0 | 0.00 | 0.00 | 0.00 | 96 | 1012.9 |
| 20260904105319 | 62 | 72 | 0.0 | 0.0 | 0.00 | 0.00 | 0.00 | 96 | 1012.5 |
| 20260904104814 | 63 | 72 | 0.0 | 0.0 | 0.00 | 0.00 | 0.00 | 96 | 1012.9 |
| 20260904104310 | 63 | 72 | 0.0 | 0.0 | 0.00 | 0.00 | 0.00 | 95 | 1012.9 |
| 20260904103807 | 62 | 72 | 0.0 | 0.0 | 0.00 | 0.00 | 0.00 | 95 | 1012.9 |
| 20260904103306 | 62 | 72 | 0.0 | 0.0 | 0.00 | 0.00 | 0.00 | 95 | 1012.9 |
| 20260904102802 | 63 | 72 | 0.0 | 0.0 | 0.00 | 0.00 | 0.00 | 95 | 1012.9 |
| 20260904102258 | 63 | 72 | 0.0 | 0.0 | 0.00 | 0.00 | 0.00 | 95 | 1012.5 |
| 20260904101754 | 63 | 72 | 0.0 | 0.0 | 0.00 | 0.00 | 0.00 | 95 | 1012.5 |
| 20260904101250 | 63 | 72 | 0.0 | 0.0 | 0.00 | 0.00 | 0.00 | 94 | 1012.9 |
| 20260904100745 | 63 | 72 | 0.0 | 0.0 | 0.00 | 0.00 | 0.00 | 94 | 1012.9 |
| 20260904100241 | 64 | 73 | 0.0 | 0.0 | 0.00 | 0.00 | 0.00 | 94 | 1012.9 |
| 20260904095740 | 64 | 73 | 0.0 | 0.0 | 0.00 | 0.00 | 0.00 | 94 | 1012.5 |
| 20260904095235 | 64 | 72 | 0.0 | 0.0 | 0.00 | 0.00 | 0.00 | 94 | 1012.9 |
| 20260904094730 | 64 | 72 | 0.0 | 0.0 | 0.00 | 0.00 | 0.00 | 93 | 1012.5 |
| 20260904094225 | 64 | 72 | 0.0 | 0.0 | 0.00 | 0.00 | 0.00 | 93 | 1012.9 |
| 20260904093722 | 64 | 72 | 0.0 | 0.0 | 0.00 | 0.00 | 0.00 | 93 | 1012.9 |
| 20260904093221 | 63 | 72 | 0.0 | 0.0 | 0.00 | 0.00 | 0.00 | 93 | 1012.9 |
| 20260904092717 | 64 | 72 | 0.0 | 0.0 | 0.00 | 0.00 | 0.00 | 93 | 1012.9 |
| 20260904092213 | 64 | 72 | 0.0 | 0.0 | 0.00 | 0.00 | 0.00 | 92 | 1012.9 |
| 20260904091709 | 64 | 72 | 0.0 | 0.0 | 0.00 | 0.00 | 0.00 | 92 | 1012.5 |
| 20260904091204 | 64 | 73 | 0.0 | 0.0 | 0.00 | 0.00 | 0.00 | 92 | 1012.9 |
| 20260904090659 | 64 | 73 | 0.0 | 0.0 | 0.00 | 0.00 | 0.00 | 92 | 1012.9 |
| 20260904090154 | 64 | 73 | 0.0 | 0.0 | 0.00 | 0.00 | 0.00 | 91 | 1012.9 |
| 20260904085649 | 64 | 73 | 0.0 | 0.0 | 0.00 | 0.00 | 0.00 | 92 | 1012.9 |
| 20260904085144 | 64 | 72 | 0.0 | 0.0 | 0.00 | 0.00 | 0.00 | 92 | 1012.5 |
| 20260904084639 | 64 | 72 | 0.0 | 0.0 | 0.00 | 0.00 | 0.00 | 92 | 1012.9 |
| 20260904084135 | 64 | 72 | 0.0 | 0.0 | 0.00 | 0.00 | 0.00 | 92 | 1012.9 |
| 20260904083632 | 64 | 72 | 0.0 | 0.0 | 0.00 | 0.00 | 0.00 | 92 | 1012.9 |
| 20260904083127 | 64 | 72 | 0.0 | 0.0 | 0.00 | 0.00 | 0.00 | 93 | 1012.9 |
| 20260904082622 | 64 | 72 | 0.0 | 0.0 | 0.00 | 0.00 | 0.00 | 93 | 1012.5 |
| 20260904082117 | 64 | 72 | 0.0 | 0.0 | 0.00 | 0.00 | 0.00 | 93 | 1012.9 |
| 20260904081613 | 64 | 72 | 0.0 | 0.0 | 0.00 | 0.00 | 0.00 | 93 | 1012.9 |
| 20260904081107 | 64 | 72 | 0.0 | 0.0 | 0.00 | 0.00 | 0.00 | 93 | 1012.9 |
| 20260904080557 | 64 | 72 | 0.0 | 0.0 | 0.00 | 0.00 | 0.00 | 93 | 1012.9 |
| 20260904080053 | 64 | 72 | 0.0 | 0.0 | 0.00 | 0.00 | 0.00 | 93 | 1012.9 |
| 20260904075549 | 64 | 72 | 0.0 | 0.0 | 0.00 | 0.00 | 0.00 | 93 | 1012.9 |
| 20260904075049 | 64 | 72 | 0.0 | 0.0 | 0.00 | 0.00 | 0.00 | 93 | 1012.9 |
| 20260904074549 | 64 | 72 | 0.0 | 0.0 | 0.00 | 0.00 | 0.00 | 94 | 1012.9 |
| 20260904074044 | 64 | 72 | 0.0 | 0.0 | 0.00 | 0.00 | 0.00 | 93 | 1012.9 |
| 20260904073539 | 64 | 72 | 0.0 | 0.0 | 0.00 | 0.00 | 0.00 | 93 | 1012.9 |
| 20260904073035 | 64 | 72 | 0.0 | 0.0 | 0.00 | 0.00 | 0.00 | 93 | 1012.9 |
| 20260904072531 | 65 | 73 | 0.0 | 0.0 | 0.00 | 0.00 | 0.00 | 93 | 1012.9 |
| 20260904072025 | 65 | 73 | 0.0 | 0.0 | 0.00 | 0.00 | 0.00 | 93 | 1012.9 |
| 20260904071521 | 65 | 73 | 0.0 | 0.0 | 0.00 | 0.00 | 0.00 | 93 | 1012.9 |
| 20260904071015 | 65 | 75 | 0.0 | 0.0 | 0.00 | 0.00 | 0.00 | 92 | 1012.5 |
| 20260904070514 | 65 | 79 | 0.0 | 0.0 | 0.00 | 0.00 | 0.00 | 92 | 1012.9 |
| 20260904070009 | 65 | 86 | 0.0 | 0.0 | 0.00 | 0.00 | 0.00 | 92 | 1012.9 |
| 20260904065505 | 66 | 92 | 0.0 | 0.0 | 0.00 | 0.00 | 0.00 | 92 | 1012.9 |
| 20260904065001 | 66 | 95 | 0.0 | 0.0 | 0.00 | 0.00 | 0.00 | 91 | 1012.5 |
| 20260904064457 | 66 | 97 | 0.0 | 0.0 | 0.00 | 0.00 | 0.00 | 92 | 1012.9 |
| 20260904063957 | 66 | 97 | 0.0 | 0.0 | 0.00 | 0.00 | 0.00 | 92 | 1012.9 |
| 20260904063453 | 67 | 96 | 0.0 | 0.0 | 0.00 | 0.00 | 0.00 | 92 | 1012.9 |
| 20260904062948 | 67 | 96 | 0.0 | 0.0 | 0.00 | 0.00 | 0.00 | 92 | 1012.9 |
| 20260904062444 | 67 | 98 | 0.0 | 0.0 | 0.00 | 0.00 | 0.00 | 92 | 1012.5 |
| 20260904061940 | 67 | 100 | 0.0 | 0.0 | 0.00 | 0.00 | 0.00 | 92 | 1012.5 |
| 20260904061436 | 67 | 100 | 0.0 | 0.0 | 0.00 | 0.00 | 0.00 | 92 | 1012.9 |
| 20260904060932 | 67 | 100 | 0.0 | 0.0 | 0.00 | 0.00 | 0.00 | 92 | 1012.9 |
| 20260904060428 | 67 | 113 | 0.0 | 0.0 | 0.00 | 0.00 | 0.00 | 92 | 1012.5 |
| 20260904055923 | 67 | 136 | 0.0 | 0.0 | 0.00 | 0.00 | 0.00 | 92 | 1012.2 |
| 20260904055419 | 68 | 158 | 0.0 | 0.0 | 0.00 | 0.00 | 0.00 | 92 | 1012.5 |
| 20260904054914 | 68 | 140 | 0.0 | 0.0 | 0.00 | 0.00 | 0.00 | 92 | 1012.5 |
| 20260904054404 | 68 | 135 | 0.0 | 0.0 | 0.00 | 0.00 | 0.00 | 92 | 1012.5 |
| 20260904053859 | 68 | 163 | 0.0 | 0.0 | 0.00 | 0.00 | 0.00 | 92 | 1012.5 |
| 20260904053358 | 68 | 212 | 0.0 | 0.0 | 0.00 | 0.00 | 0.00 | 92 | 1012.5 |
| 20260904052854 | 68 | 214 | 0.0 | 0.0 | 0.00 | 0.00 | 0.00 | 91 | 1012.5 |
| 20260904052350 | 68 | 235 | 0.0 | 0.0 | 0.00 | 0.00 | 0.00 | 91 | 1012.5 |
| 20260904051846 | 68 | 177 | 0.0 | 0.0 | 0.00 | 0.00 | 0.00 | 91 | 1012.5 |
| 20260904051343 | 68 | 146 | 0.0 | 0.0 | 0.00 | 0.00 | 0.00 | 91 | 1012.9 |
| 20260904050843 | 68 | 186 | 0.0 | 0.0 | 0.00 | 0.00 | 0.00 | 91 | 1012.9 |
| 20260904050339 | 68 | 121 | 0.0 | 0.0 | 0.00 | 0.00 | 0.00 | 91 | 1012.9 |
| 20260904045839 | 68 | 193 | 0.0 | 0.0 | 0.00 | 0.00 | 0.00 | 91 | 1012.9 |
| 20260904045335 | 68 | 203 | 0.0 | 0.0 | 0.00 | 0.00 | 0.00 | 91 | 1012.5 |
| 20260904044834 | 68 | 200 | 0.0 | 0.0 | 0.00 | 0.00 | 0.00 | 91 | 1012.9 |
| 20260904044331 | 68 | 214 | 0.0 | 0.0 | 0.00 | 0.00 | 0.00 | 91 | 1012.9 |
| 20260904043827 | 68 | 229 | 0.0 | 0.0 | 0.00 | 0.00 | 0.00 | 91 | 1012.9 |
| 20260904043323 | 68 | 245 | 0.0 | 0.0 | 0.00 | 0.00 | 0.00 | 91 | 1012.9 |
| 20260904042818 | 68 | 246 | 0.0 | 0.0 | 0.00 | 0.00 | 0.00 | 91 | 1012.9 |
| 20260904042314 | 69 | 229 | 0.0 | 0.0 | 0.00 | 0.00 | 0.00 | 91 | 1012.5 |
| 20260904041814 | 69 | 243 | 0.0 | 0.0 | 0.00 | 0.00 | 0.00 | 90 | 1012.5 |
| 20260904041310 | 69 | 241 | 0.0 | 0.0 | 0.00 | 0.00 | 0.00 | 90 | 1012.5 |
| 20260904040805 | 69 | 240 | 0.0 | 0.0 | 0.00 | 0.00 | 0.00 | 90 | 1012.5 |
| 20260904040301 | 69 | 225 | 0.0 | 0.0 | 0.00 | 0.00 | 0.00 | 90 | 1012.2 |
| 20260904035757 | 69 | 244 | 0.0 | 0.0 | 0.00 | 0.00 | 0.00 | 89 | 1012.5 |
| 20260904035253 | 69 | 246 | 0.0 | 0.0 | 0.00 | 0.00 | 0.00 | 89 | 1012.5 |
| 20260904034752 | 69 | 223 | 0.0 | 0.0 | 0.00 | 0.00 | 0.00 | 88 | 1012.2 |
| 20260904034247 | 69 | 246 | 0.0 | 0.0 | 0.00 | 0.00 | 0.00 | 88 | 1012.2 |
| 20260904033743 | 69 | 246 | 0.0 | 0.0 | 0.00 | 0.00 | 0.00 | 88 | 1012.2 |
| 20260904033240 | 69 | 235 | 0.0 | 0.0 | 0.00 | 0.00 | 0.00 | 89 | 1012.2 |
| 20260904032736 | 69 | 247 | 0.0 | 0.0 | 0.00 | 0.00 | 0.00 | 89 | 1012.2 |
| 20260904032234 | 69 | 242 | 0.0 | 0.0 | 0.00 | 0.00 | 0.00 | 89 | 1012.2 |
| 20260904031723 | 69 | 246 | 4.0 | 6.0 | 0.00 | 0.00 | 0.00 | 89 | 1012.2 |
| 20260904031219 | 69 | 255 | 0.0 | 0.0 | 0.00 | 0.00 | 0.00 | 89 | 1012.2 |
| 20260904030714 | 69 | 244 | 0.0 | 0.0 | 0.00 | 0.00 | 0.00 | 89 | 1012.2 |
| 20260904030209 | 69 | 238 | 0.0 | 0.0 | 0.00 | 0.00 | 0.00 | 90 | 1012.2 |
| 20260904025707 | 69 | 233 | 0.0 | 0.0 | 0.00 | 0.00 | 0.00 | 90 | 1011.8 |
| 20260904025201 | 69 | 252 | 0.0 | 0.0 | 0.00 | 0.00 | 0.00 | 90 | 1011.8 |
| 20260904024656 | 69 | 254 | 0.0 | 0.0 | 0.00 | 0.00 | 0.00 | 90 | 1011.8 |
| 20260904024151 | 69 | 270 | 0.0 | 1.0 | 0.00 | 0.00 | 0.00 | 90 | 1012.2 |
| 20260904023648 | 69 | 255 | 4.0 | 6.0 | 0.00 | 0.00 | 0.00 | 90 | 1011.8 |
| 20260904023143 | 69 | 242 | 0.0 | 0.0 | 0.00 | 0.00 | 0.00 | 89 | 1012.2 |
| 20260904022643 | 69 | 211 | 0.0 | 0.0 | 0.00 | 0.00 | 0.00 | 89 | 1011.8 |
| 20260904022140 | 69 | 243 | 0.0 | 0.0 | 0.00 | 0.00 | 0.00 | 89 | 1011.8 |
| 20260904021636 | 69 | 224 | 0.0 | 0.0 | 0.00 | 0.00 | 0.00 | 89 | 1011.8 |
| 20260904021130 | 70 | 161 | 0.0 | 0.0 | 0.00 | 0.00 | 0.00 | 88 | 1011.8 |
| 20260904020627 | 70 | 207 | 0.0 | 0.0 | 0.00 | 0.00 | 0.00 | 88 | 1011.8 |
| 20260904020120 | 70 | 238 | 5.0 | 6.0 | 0.00 | 0.00 | 0.00 | 86 | 1011.8 |
| 20260904015615 | 71 | 231 | 0.0 | 0.0 | 0.00 | 0.00 | 0.00 | 85 | 1011.8 |
| 20260904015114 | 71 | 168 | 0.0 | 0.0 | 0.00 | 0.00 | 0.00 | 84 | 1012.2 |
| 20260904014614 | 71 | 235 | 0.0 | 0.0 | 0.00 | 0.00 | 0.00 | 82 | 1012.2 |
| 20260904014109 | 71 | 217 | 0.0 | 0.0 | 0.00 | 0.00 | 0.00 | 82 | 1012.2 |
| 20260904013606 | 71 | 221 | 0.0 | 0.0 | 0.00 | 0.00 | 0.00 | 82 | 1012.2 |
| 20260904013056 | 72 | 255 | 4.0 | 7.0 | 0.00 | 0.00 | 0.00 | 81 | 1011.8 |
| 20260904012556 | 71 | 243 | 6.0 | 9.0 | 0.00 | 0.00 | 0.00 | 82 | 1012.2 |
| 20260904012056 | 71 | 246 | 3.0 | 10.0 | 0.00 | 0.00 | 0.00 | 82 | 1012.2 |
| 20260904011549 | 72 | 242 | 6.0 | 9.0 | 0.00 | 0.00 | 0.00 | 80 | 1012.2 |
| 20260904011045 | 72 | 256 | 0.0 | 1.0 | 0.00 | 0.00 | 0.00 | 80 | 1011.8 |
| 20260904010541 | 72 | 247 | 6.0 | 7.0 | 0.00 | 0.00 | 0.00 | 80 | 1012.2 |
| 20260904010037 | 73 | 250 | 4.0 | 5.0 | 0.00 | 0.00 | 0.00 | 79 | 1012.2 |
| 20260904005537 | 73 | 238 | 5.0 | 6.0 | 0.00 | 0.00 | 0.00 | 79 | 1011.8 |
| 20260904005032 | 73 | 245 | 6.0 | 7.0 | 0.00 | 0.00 | 0.00 | 80 | 1012.2 |
| 20260904004528 | 73 | 245 | 11.0 | 11.0 | 0.00 | 0.00 | 0.00 | 78 | 1012.2 |
| 20260904004023 | 73 | 255 | 7.0 | 9.0 | 0.00 | 0.00 | 0.00 | 78 | 1012.2 |
| 20260904003519 | 73 | 275 | 7.0 | 8.0 | 0.00 | 0.00 | 0.00 | 78 | 1012.2 |
| 20260904003014 | 73 | 242 | 6.0 | 7.0 | 0.00 | 0.00 | 0.00 | 78 | 1012.2 |
| 20260904002510 | 73 | 265 | 9.0 | 11.0 | 0.00 | 0.00 | 0.00 | 79 | 1012.2 |
| 20260904002009 | 74 | 261 | 1.0 | 5.0 | 0.00 | 0.00 | 0.00 | 77 | 1012.2 |
| 20260904001505 | 74 | 192 | 6.0 | 7.0 | 0.00 | 0.00 | 0.00 | 78 | 1012.2 |
| 20260904001004 | 74 | 282 | 0.0 | 0.0 | 0.00 | 0.00 | 0.00 | 78 | 1012.2 |
| 20260904000504 | 74 | 225 | 7.0 | 9.0 | 0.00 | 0.00 | 0.00 | 79 | 1012.2 |
| 20260903235959 | 74 | 237 | 8.0 | 10.0 | 0.00 | 0.00 | 0.00 | 79 | 1012.2 |
| 20260903235455 | 74 | 212 | 5.0 | 9.0 | 0.00 | 0.00 | 0.00 | 79 | 1012.2 |
| 20260903234955 | 74 | 232 | 3.0 | 5.0 | 0.00 | 0.00 | 0.00 | 80 | 1012.2 |
| 20260903234451 | 74 | 255 | 7.0 | 10.0 | 0.00 | 0.00 | 0.00 | 79 | 1012.2 |
| 20260903233947 | 75 | 246 | 8.0 | 9.0 | 0.00 | 0.00 | 0.00 | 78 | 1012.5 |
| 20260903233442 | 75 | 232 | 4.0 | 10.0 | 0.00 | 0.00 | 0.00 | 77 | 1012.5 |
| 20260903232937 | 75 | 256 | 6.0 | 8.0 | 0.00 | 0.00 | 0.00 | 78 | 1012.2 |
| 20260903232432 | 76 | 260 | 6.0 | 8.0 | 0.00 | 0.00 | 0.00 | 77 | 1012.5 |
| 20260903231926 | 77 | 230 | 7.0 | 9.0 | 0.00 | 0.00 | 0.00 | 74 | 1012.5 |
| 20260903231421 | 76 | 270 | 5.0 | 7.0 | 0.00 | 0.00 | 0.00 | 75 | 1012.5 |
| 20260903230916 | 76 | 243 | 10.0 | 13.0 | 0.00 | 0.00 | 0.00 | 75 | 1012.5 |
| 20260903230411 | 76 | 250 | 8.0 | 9.0 | 0.00 | 0.00 | 0.00 | 76 | 1012.9 |
| 20260903225902 | 75 | 218 | 9.0 | 11.0 | 0.00 | 0.00 | 0.00 | 76 | 1012.9 |
| 20260903225358 | 75 | 215 | 9.0 | 13.0 | 0.00 | 0.00 | 0.00 | 76 | 1012.5 |
| 20260903224854 | 75 | 228 | 7.0 | 8.0 | 0.00 | 0.00 | 0.00 | 76 | 1012.5 |
| 20260903224350 | 76 | 248 | 13.0 | 15.0 | 0.00 | 0.00 | 0.00 | 76 | 1012.5 |
| 20260903223845 | 75 | 243 | 0.0 | 0.0 | 0.00 | 0.00 | 0.00 | 76 | 1012.9 |
| 20260903223344 | 75 | 254 | 9.0 | 10.0 | 0.00 | 0.00 | 0.00 | 77 | 1012.9 |
| 20260903222839 | 76 | 246 | 9.0 | 15.0 | 0.00 | 0.00 | 0.00 | 76 | 1012.9 |
| 20260903222338 | 76 | 241 | 14.0 | 16.0 | 0.00 | 0.00 | 0.00 | 76 | 1012.9 |
| 20260903221833 | 76 | 258 | 11.0 | 14.0 | 0.00 | 0.00 | 0.00 | 76 | 1012.9 |
| 20260903221332 | 76 | 286 | 7.0 | 11.0 | 0.00 | 0.00 | 0.00 | 76 | 1012.9 |
| 20260903220829 | 76 | 276 | 5.0 | 7.0 | 0.00 | 0.00 | 0.00 | 78 | 1012.9 |
| 20260903220319 | 77 | 250 | 8.0 | 11.0 | 0.00 | 0.00 | 0.00 | 76 | 1012.9 |
| 20260903215817 | 77 | 215 | 8.0 | 9.0 | 0.00 | 0.00 | 0.00 | 74 | 1012.9 |
| 20260903215314 | 77 | 248 | 12.0 | 13.0 | 0.00 | 0.00 | 0.00 | 76 | 1012.9 |
| 20260903214812 | 76 | 264 | 9.0 | 11.0 | 0.00 | 0.00 | 0.00 | 78 | 1012.9 |
| 20260903214308 | 77 | 272 | 5.0 | 9.0 | 0.00 | 0.00 | 0.00 | 76 | 1012.9 |
| 20260903213802 | 77 | 238 | 7.0 | 10.0 | 0.00 | 0.00 | 0.00 | 74 | 1012.9 |
| 20260903213257 | 78 | 244 | 8.0 | 11.0 | 0.00 | 0.00 | 0.00 | 75 | 1012.9 |
| 20260903212747 | 81 | 65 | 3.0 | 5.0 | 0.00 | 0.00 | 0.00 | 71 | 1012.9 |
| 20260903212244 | 82 | 165 | 6.0 | 7.0 | 0.00 | 0.00 | 0.00 | 64 | 1012.9 |
| 20260903211737 | 82 | 61 | 0.0 | 0.0 | 0.00 | 0.00 | 0.00 | 62 | 1012.9 |
| 20260903211234 | 80 | 151 | 0.0 | 0.0 | 0.00 | 0.00 | 0.00 | 64 | 1013.2 |
| 20260903210730 | 82 | 60 | 1.0 | 2.0 | 0.00 | 0.00 | 0.00 | 63 | 1013.2 |
| 20260903210225 | 81 | 74 | 1.0 | 1.0 | 0.00 | 0.00 | 0.00 | 65 | 1013.2 |
| 20260903205724 | 81 | 61 | 1.0 | 3.0 | 0.00 | 0.00 | 0.00 | 64 | 1013.2 |
| 20260903205223 | 80 | 120 | 0.0 | 0.0 | 0.00 | 0.00 | 0.00 | 65 | 1013.5 |
| 20260903204719 | 81 | 128 | 2.0 | 5.0 | 0.00 | 0.00 | 0.00 | 65 | 1013.2 |
| 20260903204215 | 80 | 108 | 6.0 | 8.0 | 0.00 | 0.00 | 0.00 | 67 | 1013.2 |
| 20260903203711 | 80 | 48 | 3.0 | 5.0 | 0.00 | 0.00 | 0.00 | 66 | 1013.5 |
| 20260903203206 | 80 | 35 | 0.0 | 1.0 | 0.00 | 0.00 | 0.00 | 67 | 1013.5 |
| 20260903202659 | 80 | 80 | 2.0 | 5.0 | 0.00 | 0.00 | 0.00 | 66 | 1013.2 |
| 20260903202156 | 82 | 143 | 0.0 | 0.0 | 0.00 | 0.00 | 0.00 | 64 | 1013.5 |
| 20260903201649 | 80 | 74 | 4.0 | 6.0 | 0.00 | 0.00 | 0.00 | 66 | 1013.5 |
| 20260903201144 | 81 | 79 | 0.0 | 0.0 | 0.00 | 0.00 | 0.00 | 66 | 1013.5 |
| 20260903200638 | 81 | 64 | 0.0 | 0.0 | 0.00 | 0.00 | 0.00 | 66 | 1013.5 |
| 20260903200134 | 79 | 68 | 0.0 | 0.0 | 0.00 | 0.00 | 0.00 | 69 | 1013.2 |
| 20260903195630 | 80 | 60 | 5.0 | 6.0 | 0.00 | 0.00 | 0.00 | 66 | 1013.5 |
| 20260903195125 | 80 | 85 | 2.0 | 2.0 | 0.00 | 0.00 | 0.00 | 68 | 1013.9 |
| 20260903194620 | 80 | 69 | 4.0 | 6.0 | 0.00 | 0.00 | 0.00 | 66 | 1013.9 |
| 20260903194120 | 79 | 99 | 6.0 | 7.0 | 0.00 | 0.00 | 0.00 | 68 | 1013.9 |
| 20260903193616 | 78 | 48 | 2.0 | 3.0 | 0.00 | 0.00 | 0.00 | 70 | 1013.9 |
| 20260903193112 | 79 | 67 | 4.0 | 6.0 | 0.00 | 0.00 | 0.00 | 68 | 1013.9 |
| 20260903192608 | 78 | 45 | 5.0 | 7.0 | 0.00 | 0.00 | 0.00 | 68 | 1014.2 |
| 20260903192103 | 78 | 145 | 2.0 | 3.0 | 0.00 | 0.00 | 0.00 | 68 | 1014.2 |
| 20260903191559 | 78 | 147 | 5.0 | 8.0 | 0.00 | 0.00 | 0.00 | 70 | 1014.2 |
| 20260903191054 | 78 | 91 | 5.0 | 7.0 | 0.00 | 0.00 | 0.00 | 68 | 1014.2 |
| 20260903190554 | 78 | 46 | 5.0 | 8.0 | 0.00 | 0.00 | 0.00 | 66 | 1014.2 |
| 20260903190053 | 78 | 92 | 7.0 | 9.0 | 0.00 | 0.00 | 0.00 | 69 | 1014.6 |
| 20260903185548 | 78 | 118 | 6.0 | 9.0 | 0.00 | 0.00 | 0.00 | 68 | 1014.9 |
| 20260903185043 | 78 | 96 | 4.0 | 6.0 | 0.00 | 0.00 | 0.00 | 69 | 1014.6 |
| 20260903184534 | 78 | 47 | 5.0 | 7.0 | 0.00 | 0.00 | 0.00 | 69 | 1014.6 |
| 20260903184029 | 79 | 56 | 5.0 | 7.0 | 0.00 | 0.00 | 0.00 | 66 | 1014.6 |
| 20260903183528 | 79 | 97 | 6.0 | 8.0 | 0.00 | 0.00 | 0.00 | 69 | 1014.9 |
| 20260903183024 | 78 | 64 | 3.0 | 5.0 | 0.00 | 0.00 | 0.00 | 69 | 1014.9 |
| 20260903182522 | 77 | 66 | 5.0 | 7.0 | 0.00 | 0.00 | 0.00 | 69 | 1014.9 |
| 20260903182019 | 78 | 94 | 4.0 | 7.0 | 0.00 | 0.00 | 0.00 | 70 | 1014.9 |
| 20260903181518 | 79 | 82 | 5.0 | 6.0 | 0.00 | 0.00 | 0.00 | 69 | 1014.9 |
| 20260903181018 | 78 | 98 | 2.0 | 2.0 | 0.00 | 0.00 | 0.00 | 69 | 1014.9 |
| 20260903180513 | 78 | 88 | 5.0 | 7.0 | 0.00 | 0.00 | 0.00 | 71 | 1014.9 |
| 20260903180012 | 76 | 84 | 0.0 | 0.0 | 0.00 | 0.00 | 0.00 | 73 | 1014.6 |
| 20260903175505 | 76 | 124 | 0.0 | 0.0 | 0.00 | 0.00 | 0.00 | 72 | 1014.9 |
| 20260903175004 | 77 | 142 | 0.0 | 0.0 | 0.00 | 0.00 | 0.00 | 70 | 1014.9 |
| 20260903174500 | 78 | 82 | 3.0 | 5.0 | 0.00 | 0.00 | 0.00 | 69 | 1014.9 |
| 20260903173954 | 76 | 96 | 3.0 | 3.0 | 0.00 | 0.00 | 0.00 | 72 | 1014.9 |
| 20260903173449 | 77 | 104 | 3.0 | 5.0 | 0.00 | 0.00 | 0.00 | 72 | 1014.9 |
| 20260903172945 | 77 | 42 | 0.0 | 0.0 | 0.00 | 0.00 | 0.00 | 71 | 1015.2 |
| 20260903172440 | 77 | 73 | 3.0 | 3.0 | 0.00 | 0.00 | 0.00 | 71 | 1014.9 |
| 20260903171935 | 75 | 352 | 0.0 | 0.0 | 0.00 | 0.00 | 0.00 | 72 | 1014.9 |